Regional Weather Roundup
Issued by NWS

Home | Current Version | Previous Version | Text Only | Print | Product List | Glossary On
Versions: 1 2 3 4 5 6 7 8 9 10 11 12 13 14 15 16 17 18 19 20 21 22 23 24 25 26 27 28 29 30 31 32 33 34 35 36 37 38 39 40 41 42 43 44 45 46 47 48 49 50
000
ASUS43 KLSX 252007
RWRMO

WEATHER SUMMARY FOR MISSOURI
NATIONAL WEATHER SERVICE SPRINGFIELD MO
200 PM CST TUE NOV 25 2014

NOTE: "FAIR" INDICATES FEW OR NO CLOUDS BELOW 12,000 FEET WITH NO
       SIGNIFICANT WEATHER AND/OR OBSTRUCTIONS TO VISIBILITY.
       CURRENT SKY AND/OR WEATHER CONDITIONS ARE NOT AVAILABLE FOR
       CHILLICOTHE AND FARMINGTON.

MOZ001>031-035>038-043-044-053-054-252100-
...NORTHERN AND WESTERN MISSOURI...

CITY           SKY/WX    TMP DP  RH WIND       PRES   REMARKS
KANSAS CTY INT MOSUNNY   40  14  34 SW7       30.13F
KANSAS C DTWN  SUNNY     43  11  27 SW7       30.14F
LEE`S SUMMIT   SUNNY     40  10  29 SW6       30.13F
ST JOSEPH      SUNNY     40  15  36 S7        30.12F
CHILLICOTHE      N/A     38  14  37 SW8       30.15F
KIRKSVILLE     SUNNY     34  19  54 SW9       30.13F WCI  27

$$
MOZ066>068-077>081-088>096-101>105-252100-
...SOUTHWEST MISSOURI...

CITY           SKY/WX    TMP DP  RH WIND       PRES   REMARKS
SPRINGFIELD    SUNNY     43  14  31 SW6       30.15F
JOPLIN         SUNNY     44  16  32 W10       30.18F

$$
MOZ032>034-039>042-045>050-055>058-069>072-252100-
...CENTRAL MISSOURI...

CITY           SKY/WX    TMP DP  RH WIND       PRES   REMARKS
COLUMBIA       SUNNY     39  17  41 W8        30.15F
JEFFERSON CITY SUNNY     40  16  37 SW6       30.17F
ROLLA          SUNNY     39  17  41 W7        30.13F
SEDALIA        SUNNY     40  16  37 SW6       30.17F
WHITEMAN AFB   SUNNY     41  12  31 SW5       30.14F
WARRENSBURG    SUNNY     41  12  30 SW7       30.16F
OSAGE BEACH    SUNNY     41  14  33 S3        30.15F

$$
MOZ051-052-059>065-252100-
...EAST CENTRAL MISSOURI...

CITY           SKY/WX    TMP DP  RH WIND       PRES   REMARKS
ST LOUIS INTL  MOSUNNY   41  22  46 W7        30.15F
SPIRIT OF STL  SUNNY     39  23  52 SW8       30.16F
ST CHARLES     SUNNY     37  23  56 W9        30.16F

$$
MOZ072>076-082>087-097>100-106>115-252100-
...SOUTH CENTRAL AND SOUTHEAST MISSOURI...

CITY           SKY/WX    TMP DP  RH WIND       PRES   REMARKS
CAPE GIRARDEAU SUNNY     43  26  51 CALM      30.16F
FARMINGTON     SUNNY     43  19  39 W7        30.14F
POPLAR BLUFF   SUNNY     46  21  37 N5        30.15F
WEST PLAINS    SUNNY     44  17  33 W7        30.15F

$$


USA.gov is the U.S. government's official web portal to all federal, state and local government web resources and services.